星链-31928 (STARLINK-31928 )

导读 | 星芒AI

STARLINK-31928 是 SpaceX Starlink 卫星互联网项目中的第 31928 颗卫星。该卫星属于 Starlink 群体的一部分,旨在通过低地球轨道提供全球高速互联网服务。它采用先进推进系统和激光通信技术,提高连接稳定性和减少延迟。该卫星的发射和运行有助于扩大 Starlink 在全球范围内的覆盖,特别是在偏远和网络基础设施薄弱的地区。STARLINK-31928 的部署是 SpaceX 实现全球宽带目标的重要一步。

基本信息
目录编号:
59897
目录名称:
STARLINK-31928
国际标识:
2024-100N
轨道中心:
EARTH
卫星名称:
星链-31928
卫星全名:
星链-31928 (STARLINK-31928 )
卫星状态:
在轨 (已飞行524 天)
发射日期:
2024-05-28 UTC
国别 :
美国 (US)
星等 :
--
轨道信息
数据来源 国际轨道数据
星历时间: 2025-11-02T20:19:33+0800
16小时前
查看轨道信息
半长轴: 6861.189km
偏心率: 0.0000988
轨道倾角: 43.001°
近地点辐角 274.091°
升交点赤经 123.906°
平近点角 85.983°
近地点: 482.376km
远地点: 483.732km
周期: 94.267分钟
每日圈数: 15.275792
详细信息
固有亮度:
5
最大亮度:
1.5
卫星平台:
Starlink v2.0 mini
覆盖范围:
全球
运营商:
太空探索技术公司
运营商所在国:
美国
制造商(研发单位):
太空探索技术公司
制造商所在国:
美国
使用方式:
暂无
卫星简介
星链(Starlink)计划是由太空探索技术公司(SpaceX)提出的一个巨型低轨卫星互联网星座项目,计划在2019年至2024年间在太空搭建由约1.2万颗卫星组成的“星链”网络,其中1584颗将部署在地球上空550千米处的近地轨道,并从2020年开始工作。该卫星仍在工作。
2D轨道图
3D轨道图
轨道高度分析图
轨道倾角分析图
轨道综合分析图
查看轨道综合分析图